Regional Weather Roundup
Issued by NWS

Home | Current Version | Previous Version | Graphics & Text | Print | Product List | Glossary On
Versions: 1 2 3 4 5 6 7 8 9 10 11 12 13 14 15 16 17 18 19 20 21 22 23 24 25 26 27 28 29 30 31 32 33 34 35 36 37 38 39 40 41 42 43 44 45 46 47 48 49 50
000
ASUS45 KBOU 020907
RWRCO

WEATHER ROUNDUP FOR COLORADO
NATIONAL WEATHER SERVICE DENVER/BOULDER CO
300 AM MDT WED SEP 02 2015

NOTE: "FAIR" INDICATES FEW OR NO CLOUDS BELOW 12000 FEET WITH NO
SIGNIFICANT WEATHER AND/OR OBSTRUCTIONS TO VISIBILITY.

COZ001>005-013-030-031-021000-
...NORTHWEST COLORADO...

CITY           SKY/WX    TMP DP  RH WIND       PRES   REMARKS
CRAIG          CLEAR     48  42  80 CALM      30.22S
HAYDEN         NOT AVBL
MEEKER         CLEAR     49  45  86 NE7       30.23F
MOUNT WERNER   NOT AVBL
STEAMBOAT SPGS CLEAR     49  42  75 CALM      30.27S
WALDEN         PTCLDY    50  41  71 S9        30.33S
$$

COZ006>008-011-021000-
...WEST CENTRAL VALLEYS...

CITY           SKY/WX    TMP DP  RH WIND       PRES   REMARKS
GRAND JUNCTION PTCLDY    64  49  57 E9        30.13F
MONTROSE       CLEAR     60  49  66 CALM      30.23S
EAGLE          CLEAR     50  48  93 E5        30.33S
RIFLE          PTCLDY    54  50  86 CALM      30.23S
DELTA          NOT AVBL
NUCLA          CLEAR     61  45  55 E6        30.25S
$$

COZ017>023-064>068-021000-
...SOUTHWEST COLORADO...

CITY           SKY/WX    TMP DP  RH WIND       PRES   REMARKS
DURANGO        PTCLDY    55  45  68 CALM      30.26F
CORTEZ         PTCLDY    56  44  64 E6        30.21S
PAGOSA SPRINGS MOCLDY    58  47  65 NE6       30.34S
TELLURIDE      PTCLDY    52  46  79 SE3       30.45F
WOLF CREEK PAS NOT AVBL
$$

COZ009-010-012-014-032>034-037-058>063-021000-
...CENTRAL COLORADO...

CITY           SKY/WX    TMP DP  RH WIND       PRES   REMARKS
ASPEN          CLEAR     48  44  86 SW3       30.35S
BUENA VISTA    NOT AVBL
COPPER MTN     PTCLDY    46  32  57 SW14G21   30.60S
BERTHOUD PASS  FAIR      39  28  65 W24G35    30.61F
COTTONWOOD PAS PTCLDY    52  41  66 SW5       30.47F
GUNNISON       PTCLDY    48  45  87 CALM      30.41R
KREMMLING      CLEAR     50  45  81 CALM      30.35R
LEADVILLE      PTCLDY    43  43 100 NE7       30.48F
MONARCH PASS   PTCLDY    43  36  75 W17       30.71F
SALIDA         PTCLDY    55  47  73 W6        30.42S
SUNLIGHT       PTCLDY    46  41  81 CALM      30.55S
WILKERSON PASS MOCLDY    45  36  70 W7        30.57F
$$

COZ069>075-021000-
...SAN LUIS VALLEY/SANGRE DE CRISTO MOUNTAINS...

CITY           SKY/WX    TMP DP  RH WIND       PRES   REMARKS
ALAMOSA        MOCLDY    50  44  80 NW5       30.33S
LA VETA PASS   PTCLDY    50  39  66 S13G18    30.48S
SAGUACHE       CLOUDY    55  45  67 NW12      30.36S
$$

COZ035-036-038>040-021000-
...NORTHERN COLORADO FRONT RANGE...

CITY           SKY/WX    TMP DP  RH WIND       PRES   REMARKS
DENVER INTL AP MOCLDY    67  46  47 SW10      30.08F
DMNS CITY PARK   N/A     66  49  53 E9        30.07F
AURORA         MOCLDY    68  45  43 S9        30.10F
FRONT RANGE AP NOT AVBL
ERIE MUNI ARPT CLOUDY    65  47  52 CALM      30.06S
BOULDER MUN AP CLOUDY    73  41  31 S3        30.06R
CENTENNIAL     CLOUDY    71  43  36 W13G21    30.11F
BROOMFIELD     CLOUDY    68  41  37 CALM      30.09F
FORT COLLINS   MOCLDY    63  45  51 NE6       30.06R
LONGMONT       MOCLDY    70  44  37 CALM      30.07R
$$

COZ041-046-047-076>085-087-088-021000-
...PIKES PEAK/PALMER DIVIDE AND SOUTHERN FOOTHILLS...

CITY           SKY/WX    TMP DP  RH WIND       PRES   REMARKS
COLO. SPRINGS  PTCLDY    62  48  60 N7        30.18F
A. F. ACADEMY  CLOUDY    66  44  44 VRB5      30.20F
ELLICOTT       PTCLDY   N/A N/A N/A CALM      30.16F
FALCON         PTCLDY    64  43  45 MISG      30.23S
FORT CARSON    PTCLDY    59  50  71 NW10      30.14F
LIMON          MOCLDY    62  50  64 W8        30.10S
MONUMENT HILL  CLOUDY    61  43  51 SW3       30.23S
TRINIDAD       PTCLDY    59  47  64 W7        30.17S
$$

COZ042>045-048>051-090-091-021000-
...NORTHEAST COLORADO...

CITY           SKY/WX    TMP DP  RH WIND       PRES   REMARKS
GREELEY ARPT   MOCLDY    61  48  63 CALM      30.05S
AKRON          PTCLDY    63  49  60 W9        30.03F
BURLINGTON       N/A     63  55  75 S3        30.00F
WRAY           CLOUDY    64  57  79 SW6       29.97F
STERLING       NOT AVBL
HOLYOKE        CLEAR     64  54  68 W9        29.96F
FORT MORGAN    NOT AVBL
$$

COZ086-089-092>099-021000-
...SOUTHEAST COLORADO...

CITY           SKY/WX    TMP DP  RH WIND       PRES   REMARKS
PUEBLO         PTCLDY    66  51  58 NW12      30.08S
LA JUNTA       PTCLDY    69  52  54 W15       30.02F
LAMAR          MOCLDY    67  54  63 W7        29.97R
SPRINGFIELD      N/A     66  55  67 SW9       30.04F
$$



USA.gov is the U.S. government's official web portal to all federal, state and local government web resources and services.